Location: Sabalos
(43.2860°N, 0.1414°E)
Time: 08:17:06
(UTC+00:00)

Cosmos 2221 - Pass Details

Date: 05 July 2020
Orbit: 592 x 617 km, 82.5° (Epoch: 14 August)

Event Time Altitude Azimuth Distance (km) Brightness Sun altitude
Rises 22:31:43 0° 347° (NNW) 2,894 7.5 -20.7°
Reaches altitude 10° 22:33:59 10° 343° (NNW) 1,982 6.3 -20.9°
Maximum altitude 22:38:15 54° 266° (W) 746 3.0 -21.1°
Enters shadow 22:39:20 42° 218° (SW) 878 3.0 -21.2°
